TimeEEST,TemperatureF,Dew PointF,Humidity,Sea Level PressureIn,VisibilityMPH,Wind Direction,Wind SpeedMPH,Gust SpeedMPH,PrecipitationIn,Events,Conditions,WindDirDegrees,DateUTC
12:20 AM,68.0,55.4,64,29.89,6.2,NNE,6.9,-,N/A,,Mostly Cloudy,30,2012-10-09 21:20:00
12:50 AM,66.2,55.4,68,29.86,6.2,Variable,2.3,-,N/A,,Mostly Cloudy,0,2012-10-09 21:50:00
1:20 AM,66.2,55.4,68,29.86,6.2,Calm,Calm,-,N/A,,Mostly Cloudy,0,2012-10-09 22:20:00
1:50 AM,66.2,55.4,68,29.86,6.2,Calm,Calm,-,N/A,,Mostly Cloudy,0,2012-10-09 22:50:00
2:20 AM,66.2,55.4,68,29.86,6.2,Variable,3.5,-,N/A,,Mostly Cloudy,0,2012-10-09 23:20:00
2:50 AM,66.2,53.6,64,29.86,6.2,Variable,2.3,-,N/A,,Mostly Cloudy,0,2012-10-09 23:50:00
3:20 AM,66.2,53.6,64,29.86,6.2,Calm,Calm,-,N/A,,Mostly Cloudy,0,2012-10-10 00:20:00
3:50 AM,66.2,53.6,64,29.86,6.2,WNW,3.5,-,N/A,,Mostly Cloudy,290,2012-10-10 00:50:00
4:20 AM,66.2,55.4,68,29.83,6.2,West,2.3,-,N/A,,Mostly Cloudy,280,2012-10-10 01:20:00
4:50 AM,66.2,55.4,68,29.83,6.2,North,1.2,-,N/A,,Mostly Cloudy,360,2012-10-10 01:50:00
5:20 AM,64.4,53.6,68,29.83,6.2,Variable,1.2,-,N/A,,Mostly Cloudy,0,2012-10-10 02:20:00
6:20 AM,66.2,53.6,64,29.83,6.2,North,5.8,-,N/A,,Mostly Cloudy,360,2012-10-10 03:20:00
6:50 AM,66.2,53.6,64,29.83,6.2,Variable,3.5,-,N/A,,Mostly Cloudy,0,2012-10-10 03:50:00
7:20 AM,66.2,55.4,68,29.83,6.2,WSW,2.3,-,N/A,,Mostly Cloudy,240,2012-10-10 04:20:00
7:50 AM,68.0,55.4,64,29.83,6.2,Calm,Calm,-,N/A,,Mostly Cloudy,0,2012-10-10 04:50:00
8:20 AM,68.0,55.4,64,29.83,6.2,WSW,1.2,-,N/A,,Mostly Cloudy,250,2012-10-10 05:20:00
8:50 AM,68.0,55.4,64,29.83,6.2,Variable,2.3,-,N/A,,Mostly Cloudy,0,2012-10-10 05:50:00
9:20 AM,69.8,55.4,60,29.83,6.2,North,6.9,-,N/A,,Scattered Clouds,10,2012-10-10 06:20:00
9:50 AM,69.8,55.4,60,29.86,6.2,NNE,8.1,-,N/A,,Mostly Cloudy,20,2012-10-10 06:50:00
10:20 AM,69.8,55.4,60,29.86,6.2,NNE,8.1,-,N/A,,Mostly Cloudy,20,2012-10-10 07:20:00
10:50 AM,69.8,55.4,60,29.86,6.2,NNE,5.8,-,N/A,,Mostly Cloudy,20,2012-10-10 07:50:00
11:20 AM,69.8,55.4,60,29.86,5.6,NNE,8.1,-,N/A,Rain,Rain,20,2012-10-10 08:20:00
11:50 AM,68.0,55.4,64,29.86,6.2,NNE,3.5,-,N/A,,Drizzle,20,2012-10-10 08:50:00
12:20 PM,68.0,57.2,68,29.86,6.2,ENE,5.8,-,N/A,,Drizzle,60,2012-10-10 09:20:00
12:50 PM,68.0,57.2,68,29.86,6.2,ENE,5.8,-,N/A,,Overcast,70,2012-10-10 09:50:00
1:20 PM,69.8,55.4,60,29.86,6.2,NNE,8.1,-,N/A,,Overcast,30,2012-10-10 10:20:00
1:50 PM,69.8,55.4,60,29.86,6.2,North,6.9,-,N/A,,Overcast,360,2012-10-10 10:50:00
2:20 PM,69.8,57.2,64,29.86,6.2,NE,5.8,-,N/A,Rain,Light Rain,40,2012-10-10 11:20:00
2:50 PM,69.8,59.0,68,29.83,6.2,East,4.6,-,N/A,,Mostly Cloudy,80,2012-10-10 11:50:00
3:20 PM,69.8,59.0,68,29.86,6.2,SSE,4.6,-,N/A,,Mostly Cloudy,160,2012-10-10 12:20:00
3:50 PM,69.8,59.0,68,29.86,6.2,SE,5.8,-,N/A,,Mostly Cloudy,140,2012-10-10 12:50:00
4:20 PM,71.6,57.2,60,29.83,6.2,Variable,3.5,-,N/A,,Mostly Cloudy,0,2012-10-10 13:20:00
4:50 PM,69.8,57.2,64,29.83,6.2,ESE,4.6,-,N/A,,Mostly Cloudy,110,2012-10-10 13:50:00
5:20 PM,69.8,57.2,64,29.83,6.2,East,4.6,-,N/A,,Mostly Cloudy,100,2012-10-10 14:20:00
5:50 PM,68.0,59.0,73,29.83,6.2,East,4.6,-,N/A,Rain,Light Rain,100,2012-10-10 14:50:00
6:20 PM,68.0,57.2,68,29.83,6.2,NNE,3.5,-,N/A,Rain,Light Rain,20,2012-10-10 15:20:00
6:50 PM,68.0,57.2,68,29.83,6.2,North,3.5,-,N/A,,Mostly Cloudy,360,2012-10-10 15:50:00
7:20 PM,66.2,57.2,73,29.86,6.2,North,3.5,-,N/A,,Mostly Cloudy,10,2012-10-10 16:20:00
7:50 PM,66.2,57.2,73,29.86,6.2,North,4.6,-,N/A,,Mostly Cloudy,350,2012-10-10 16:50:00
8:20 PM,66.2,57.2,73,29.86,6.2,North,5.8,-,N/A,,Mostly Cloudy,360,2012-10-10 17:20:00
8:50 PM,66.2,55.4,68,29.86,6.2,North,4.6,-,N/A,,Mostly Cloudy,10,2012-10-10 17:50:00
9:20 PM,66.2,55.4,68,29.86,6.2,North,4.6,-,N/A,,Mostly Cloudy,10,2012-10-10 18:20:00
9:50 PM,66.2,55.4,68,29.86,6.2,NNE,3.5,-,N/A,,Mostly Cloudy,20,2012-10-10 18:50:00
10:20 PM,66.2,55.4,68,29.86,6.2,Variable,3.5,-,N/A,,Scattered Clouds,0,2012-10-10 19:20:00
10:50 PM,64.4,57.2,77,29.86,6.2,Variable,2.3,-,N/A,,Mostly Cloudy,0,2012-10-10 19:50:00
11:20 PM,62.6,55.4,77,29.86,6.2,East,1.2,-,N/A,,Mostly Cloudy,80,2012-10-10 20:20:00
11:50 PM,62.6,55.4,77,29.86,6.2,Variable,1.2,-,N/A,,Mostly Cloudy,0,2012-10-10 20:50:00